GW6191 Weather Reports


Display with metric or nautical units.
time (UTC)temp
F
wind
direction
speed
MPH
gust
MPH
rain 1hr
in
rain 24hr
in
rain mn
in
humidity
%
barometer
mb
20260509185510 88 55 2.0 9.0 0.00 0.00 0.00 50 1010.3
20260509185003 88 17 4.0 9.0 0.00 0.00 0.00 50 1010.3
20260509184521 86 15 2.0 5.0 0.00 0.00 0.00 54 1010.3
20260509184006 84 167 2.0 5.0 0.00 0.00 0.00 54 1010.4
20260509183511 85 342 1.0 10.0 0.00 0.00 0.00 53 1010.5
20260509183014 87 352 4.0 10.0 0.00 0.00 0.00 53 1010.6
20260509182507 86 42 1.0 5.0 0.00 0.00 0.00 49 1010.6
20260509182010 86 9 1.0 5.0 0.00 0.00 0.00 52 1010.7
20260509181508 87 22 3.0 8.0 0.00 0.00 0.00 52 1010.7
20260509181003 86 25 2.0 8.0 0.00 0.00 0.00 56 1010.7
20260509180505 85 26 4.0 8.0 0.00 0.00 0.00 53 1010.7
20260509180017 86 323 1.0 7.0 0.00 0.00 0.00 51 1010.7
20260509175512 85 29 4.0 8.0 0.00 0.00 0.00 53 1010.8
20260509175006 84 288 0.0 9.0 0.00 0.00 0.00 51 1010.8
20260509174518 85 352 3.0 9.0 0.00 0.00 0.00 53 1010.8
20260509174004 85 352 4.0 9.0 0.00 0.00 0.00 57 1010.9
20260509173511 84 307 4.0 9.0 0.00 0.00 0.00 59 1010.9
20260509173026 86 11 3.0 9.0 0.00 0.00 0.00 54 1010.9
20260509172511 84 352 3.0 9.0 0.00 0.00 0.00 58 1011.0
20260509172006 84 315 7.0 9.0 0.00 0.00 0.00 54 1011.0
20260509171525 84 304 3.0 9.0 0.00 0.00 0.00 55 1011.0
20260509171014 83 324 3.0 9.0 0.00 0.00 0.00 60 1011.1
20260509170504 82 307 5.0 9.0 0.00 0.00 0.00 61 1011.1
20260509170009 82 290 5.0 9.0 0.00 0.00 0.00 60 1011.1
20260509165503 81 283 4.0 10.0 0.00 0.00 0.00 59 1011.2
20260509165003 81 324 6.0 11.0 0.00 0.00 0.00 60 1011.3
20260509164511 81 326 8.0 11.0 0.00 0.00 0.00 59 1011.4
20260509164009 81 317 6.0 12.0 0.00 0.00 0.00 61 1011.4
20260509163505 81 324 8.0 12.0 0.00 0.00 0.00 57 1011.5
20260509163025 82 296 6.0 11.0 0.00 0.00 0.00 60 1011.5
20260509162506 82 325 6.0 11.0 0.00 0.00 0.00 60 1011.5
20260509162012 81 317 5.0 11.0 0.00 0.00 0.00 62 1011.5
20260509161530 81 320 6.0 12.0 0.00 0.00 0.00 60 1011.4
20260509161009 80 329 8.0 12.0 0.00 0.00 0.00 61 1011.4
20260509160510 80 339 9.0 14.0 0.00 0.00 0.00 60 1011.4
20260509160024 79 360 9.0 14.0 0.00 0.00 0.00 61 1011.3
20260509155507 79 328 8.0 13.0 0.00 0.00 0.00 64 1011.2
20260509155008 78 333 9.0 14.0 0.00 0.00 0.00 61 1011.3
20260509154510 79 11 9.0 14.0 0.00 0.00 0.00 60 1011.2
20260509154006 78 342 10.0 13.0 0.00 0.00 0.00 60 1011.3
20260509153506 79 329 9.0 15.0 0.00 0.00 0.00 63 1011.2
20260509153024 79 319 7.0 15.0 0.00 0.00 0.00 61 1011.2
20260509152507 79 321 8.0 12.0 0.00 0.00 0.00 62 1011.3
20260509152011 78 329 6.0 12.0 0.00 0.00 0.00 67 1011.3
20260509151515 77 294 7.0 13.0 0.00 0.00 0.00 66 1011.3
20260509151006 76 322 9.0 13.0 0.00 0.00 0.00 66 1011.3
20260509150512 76 335 9.0 13.0 0.00 0.00 0.00 67 1011.3
20260509150028 76 304 9.0 13.0 0.00 0.00 0.00 68 1011.3
20260509145509 76 293 8.0 13.0 0.00 0.00 0.00 70 1011.4
20260509145018 76 329 8.0 12.0 0.00 0.00 0.00 69 1011.5
20260509144525 75 313 5.0 10.0 0.00 0.00 0.00 76 1011.5
20260509144004 74 313 6.0 10.0 0.00 0.00 0.00 74 1011.5
20260509143510 74 290 6.0 10.0 0.00 0.00 0.00 77 1011.6
20260509143014 74 288 4.0 8.0 0.00 0.00 0.00 79 1011.5
20260509142507 73 296 5.0 8.0 0.00 0.00 0.00 82 1011.6
20260509142011 72 278 4.0 8.0 0.00 0.00 0.00 83 1011.5
20260509141526 72 296 5.0 8.0 0.00 0.00 0.00 82 1011.6
20260509141011 72 291 3.0 8.0 0.00 0.00 0.00 82 1011.6
20260509140505 72 291 4.0 9.0 0.00 0.00 0.00 82 1011.6
20260509140021 72 273 4.0 9.0 0.00 0.00 0.00 83 1011.6
20260509135504 71 293 4.0 8.0 0.00 0.00 0.00 85 1011.6
20260509135003 71 290 7.0 8.0 0.00 0.00 0.00 84 1011.6
20260509134510 70 305 5.0 9.0 0.00 0.00 0.00 85 1011.5
20260509134006 70 338 5.0 9.0 0.00 0.00 0.00 85 1011.4
20260509133503 70 309 6.0 9.0 0.00 0.00 0.00 85 1011.4
20260509133010 70 360 5.0 10.0 0.00 0.00 0.00 85 1011.4
20260509132507 70 330 5.0 10.0 0.00 0.00 0.00 86 1011.4
20260509132011 70 329 6.0 9.0 0.00 0.00 0.00 86 1011.4
20260509131511 70 313 5.0 9.0 0.00 0.00 0.00 87 1011.4
20260509131010 69 324 5.0 8.0 0.00 0.00 0.00 88 1011.4
20260509130516 68 315 3.0 8.0 0.00 0.00 0.00 89 1011.3
20260509130008 68 308 4.0 8.0 0.00 0.01 0.00 89 1011.3
20260509125514 67 302 4.0 7.0 0.00 0.02 0.00 90 1011.3
20260509125009 67 296 3.0 6.0 0.00 0.02 0.00 91 1011.3
20260509124505 66 272 4.0 6.0 0.00 0.02 0.00 91 1011.3
20260509124004 66 273 3.0 6.0 0.00 0.02 0.00 91 1011.3
20260509123503 66 279 3.0 4.0 0.00 0.02 0.00 92 1011.2
20260509123010 66 284 2.0 3.0 0.00 0.02 0.00 92 1011.2
20260509122507 66 284 2.0 4.0 0.00 0.02 0.00 92 1011.1
20260509122017 66 283 2.0 5.0 0.00 0.02 0.00 92 1011.0
20260509121521 66 288 3.0 5.0 0.00 0.02 0.00 92 1011.0
20260509121006 65 296 2.0 4.0 0.00 0.02 0.00 92 1010.9
20260509120506 65 298 3.0 6.0 0.00 0.02 0.00 92 1010.9
20260509120018 65 319 2.0 6.0 0.00 0.02 0.00 92 1010.8
20260509115508 65 321 4.0 6.0 0.00 0.03 0.00 91 1010.8
20260509115007 65 319 3.0 6.0 0.00 0.03 0.00 91 1010.7
20260509114536 65 315 4.0 7.0 0.00 0.03 0.00 91 1010.5
20260509114009 65 331 4.0 7.0 0.00 0.03 0.00 91 1010.5
20260509113513 65 314 5.0 7.0 0.00 0.03 0.00 91 1010.3
20260509113010 65 302 4.0 5.0 0.00 0.03 0.00 90 1010.3
20260509112505 65 327 4.0 5.0 0.00 0.03 0.00 90 1010.1
20260509112009 66 317 4.0 6.0 0.00 0.03 0.00 90 1010.1
20260509111513 66 319 4.0 10.0 0.00 0.03 0.00 90 1010.0
20260509111007 66 338 5.0 10.0 0.00 0.03 0.00 90 1010.0
20260509110514 66 302 6.0 11.0 0.00 0.03 0.00 90 1010.0
20260509110022 66 308 7.0 11.0 0.00 0.03 0.00 90 1010.1
20260509105506 66 302 7.0 10.0 0.00 0.03 0.00 89 1009.8
20260509105008 66 290 7.0 11.0 0.00 0.03 0.00 89 1009.8
20260509104523 66 277 6.0 10.0 0.00 0.03 0.00 88 1010.1
20260509104006 66 275 4.0 10.0 0.00 0.03 0.00 88 1009.8
20260509103506 66 282 6.0 10.0 0.00 0.03 0.00 88 1009.9
20260509103021 67 289 5.0 9.0 0.00 0.03 0.00 88 1009.8
20260509102509 67 286 4.0 10.0 0.00 0.03 0.00 87 1009.8
20260509102007 67 260 6.0 8.0 0.00 0.03 0.00 87 1009.9
20260509101512 66 266 4.0 5.0 0.00 0.03 0.00 88 1009.8
20260509101006 66 254 2.0 4.0 0.00 0.04 0.00 87 1009.7
20260509100506 66 238 2.0 2.0 0.00 0.05 0.00 86 1009.6
20260509100014 66 218 1.0 2.0 0.00 0.05 0.00 86 1009.5
20260509095510 67 213 1.0 2.0 0.00 0.05 0.00 85 1009.5
20260509095010 67 313 0.0 3.0 0.00 0.05 0.00 83 1009.3
20260509094509 68 346 1.0 3.0 0.00 0.05 0.00 82 1009.1
20260509094009 69 346 0.0 2.0 0.00 0.05 0.00 81 1009.0
20260509093509 69 346 1.0 4.0 0.00 0.05 0.00 79 1008.9
20260509093024 70 352 1.0 4.0 0.00 0.05 0.00 79 1008.8
20260509092508 70 55 1.0 4.0 0.00 0.05 0.00 78 1008.7
20260509092009 70 336 2.0 9.0 0.00 0.05 0.00 77 1008.8
20260509091526 71 28 2.0 9.0 0.00 0.05 0.00 76 1008.8
20260509091010 71 38 5.0 8.0 0.00 0.05 0.00 74 1008.8
20260509090504 71 360 2.0 7.0 0.00 0.05 0.00 72 1008.7
20260509090041 72 349 2.0 8.0 0.00 0.05 0.00 70 1008.7
20260509085506 72 19 3.0 8.0 0.00 0.05 0.00 67 1008.5
20260509085005 72 27 4.0 14.0 0.00 0.05 0.00 67 1008.5
20260509084523 70 212 8.0 14.0 0.00 0.05 0.00 72 1008.1
20260509084010 70 59 3.0 15.0 0.00 0.05 0.00 79 1008.4
20260509083509 70 146 9.0 15.0 0.00 0.05 0.00 78 1007.2
20260509083039 71 190 3.0 6.0 0.00 0.05 0.00 71 1006.9
20260509082513 71 146 1.0 2.0 0.00 0.05 0.00 70 1006.5
20260509082020 71 157 0.0 2.0 0.00 0.05 0.00 70 1006.5
20260509081525 71 131 1.0 2.0 0.00 0.05 0.00 69 1006.6
20260509081014 70 240 0.0 5.0 0.00 0.05 0.00 72 1006.7
20260509080510 70 242 2.0 8.0 0.00 0.05 0.00 76 1006.8
20260509080030 69 249 3.0 8.0 0.00 0.05 0.00 79 1007.1
20260509075506 70 207 3.0 5.0 0.00 0.05 0.00 77 1007.2
20260509075011 70 196 3.0 10.0 0.00 0.05 0.00 79 1007.8
20260509074528 69 263 5.0 10.0 0.00 0.05 0.00 83 1008.5
20260509074006 69 252 6.0 11.0 0.00 0.06 0.00 87 1008.9
20260509073509 69 242 5.0 11.0 0.00 0.06 0.00 88 1009.3
20260509073024 68 240 5.0 11.0 0.00 0.06 0.00 89 1009.5
20260509072511 69 224 6.0 11.0 0.00 0.07 0.00 90 1009.7
20260509072009 69 221 8.0 14.0 0.00 0.08 0.00 90 1010.0
20260509071526 68 234 6.0 16.0 0.00 0.10 0.00 91 1010.0
20260509071009 68 225 8.0 16.0 0.00 0.11 0.00 91 1010.2
20260509070511 68 229 8.0 13.0 0.00 0.11 0.00 91 1010.3
20260509070032 68 237 8.0 12.0 0.00 0.14 0.00 91 1010.6
20260509065513 68 221 9.0 13.0 0.00 0.15 0.00 91 1010.6
20260509065013 68 226 8.0 13.0 0.00 0.15 0.00 92 1011.1
20260509064518 68 239 7.0 11.0 0.00 0.15 0.00 92 1011.1
20260509064010 68 219 6.0 9.0 0.00 0.15 0.00 92 1011.3
20260509063509 68 233 4.0 8.0 0.00 0.15 0.00 91 1011.4
20260509063020 68 244 3.0 9.0 0.00 0.15 0.00 92 1011.4
20260509062510 67 257 5.0 9.0 0.00 0.15 0.00 92 1011.5
20260509062012 67 236 5.0 8.0 0.00 0.15 0.00 91 1011.5
20260509061525 67 248 4.0 7.0 0.00 0.15 0.00 91 1011.6
20260509061006 67 259 3.0 6.0 0.00 0.15 0.00 91 1011.7
20260509060512 67 267 3.0 4.0 0.00 0.15 0.00 91 1011.9
20260509060028 67 275 3.0 4.0 0.00 0.15 0.00 91 1011.8
20260509055510 67 275 2.0 2.0 0.00 0.15 0.00 91 1011.6
20260509055008 67 265 1.0 3.0 0.00 0.15 0.00 90 1011.6
20260509054527 67 207 0.0 4.0 0.00 0.15 0.00 90 1011.5
20260509054013 67 159 2.0 4.0 0.00 0.15 0.00 89 1011.1
20260509053507 67 236 0.0 2.0 0.00 0.15 0.00 89 1011.4
20260509053029 68 233 1.0 3.0 0.00 0.15 0.00 87 1011.5
20260509052510 69 345 0.0 3.0 0.00 0.15 0.00 88 1011.6
20260509052011 69 332 2.0 6.0 0.00 0.15 0.00 87 1011.9
20260509051520 69 22 1.0 6.0 0.00 0.15 0.00 87 1011.8
20260509051010 70 22 3.0 6.0 0.00 0.15 0.00 87 1012.1
20260509050516 70 360 2.0 8.0 0.00 0.15 0.00 86 1012.1
20260509050020 70 24 2.0 8.0 0.00 0.15 0.00 86 1012.2
20260509045502 70 351 4.0 8.0 0.00 0.15 0.15 86 1012.2
20260509045003 70 347 2.0 3.0 0.00 0.15 0.15 85 1011.8
20260509044511 71 115 1.0 3.0 0.00 0.15 0.15 85 1011.1
20260509044011 70 153 2.0 3.0 0.00 0.15 0.15 85 1010.9
20260509043503 70 168 1.0 4.0 0.00 0.15 0.15 86 1010.7
20260509043021 70 163 1.0 4.0 0.00 0.15 0.15 85 1010.4
20260509042508 70 150 1.0 4.0 0.00 0.15 0.15 85 1010.4
20260509042010 70 136 1.0 4.0 0.00 0.15 0.15 86 1010.4
20260509041509 70 186 1.0 4.0 0.00 0.15 0.15 86 1010.3
20260509041009 70 169 1.0 5.0 0.00 0.15 0.15 85 1010.2
20260509040510 70 160 2.0 5.0 0.00 0.15 0.15 85 1010.2
20260509040005 70 141 2.0 3.0 0.00 0.15 0.15 84 1010.3
20260509035505 70 153 0.0 4.0 0.00 0.15 0.15 84 1010.4
20260509035004 71 158 1.0 4.0 0.00 0.15 0.15 84 1010.4
20260509034511 71 128 2.0 4.0 0.00 0.15 0.15 84 1010.3
20260509034006 71 158 0.0 3.0 0.00 0.15 0.15 83 1010.5
20260509033509 71 155 2.0 3.0 0.00 0.15 0.15 83 1010.4
20260509033020 71 122 0.0 5.0 0.00 0.15 0.15 83 1010.6
20260509032503 71 23 0.0 6.0 0.00 0.15 0.15 83 1010.7
20260509032005 71 58 3.0 6.0 0.00 0.15 0.15 83 1010.7
20260509031527 71 55 2.0 4.0 0.00 0.15 0.15 83 1010.5
20260509031012 71 124 1.0 4.0 0.00 0.15 0.15 83 1010.3
20260509030510 71 134 1.0 4.0 0.00 0.15 0.15 83 1010.0
20260509030021 71 35 0.0 8.0 0.00 0.15 0.15 83 1009.8
20260509025508 71 109 3.0 11.0 0.00 0.15 0.15 83 1009.3
20260509025003 71 154 4.0 11.0 0.00 0.15 0.15 82 1009.0
20260509024507 71 142 4.0 11.0 0.00 0.15 0.15 82 1008.9
20260509024005 71 144 4.0 9.0 0.00 0.15 0.15 82 1009.0
20260509023505 71 140 3.0 9.0 0.00 0.15 0.15 82 1008.9
20260509023007 71 124 4.0 7.0 0.00 0.15 0.15 82 1008.9
20260509022507 71 145 3.0 7.0 0.00 0.15 0.15 81 1008.8
20260509022007 71 153 2.0 7.0 0.00 0.15 0.15 81 1008.6
20260509021518 71 161 2.0 9.0 0.00 0.15 0.15 81 1008.6
20260509021006 71 121 4.0 9.0 0.00 0.15 0.15 81 1008.5
20260509020507 72 169 2.0 8.0 0.00 0.15 0.15 80 1008.5
20260509020024 71 121 4.0 8.0 0.00 0.15 0.15 80 1008.5
20260509015503 71 140 4.0 10.0 0.00 0.15 0.15 80 1008.3
20260509015015 71 151 5.0 10.0 0.00 0.15 0.15 80 1008.3
20260509014521 71 155 4.0 9.0 0.00 0.15 0.15 80 1008.5
20260509014008 71 178 4.0 8.0 0.00 0.15 0.15 80 1008.7
20260509013504 72 175 4.0 9.0 0.00 0.15 0.15 79 1008.7
20260509013008 72 148 3.0 9.0 0.00 0.15 0.15 78 1008.8
20260509012504 72 147 4.0 7.0 0.00 0.15 0.15 78 1008.8
20260509012004 72 181 4.0 7.0 0.00 0.15 0.15 77 1008.9
20260509011515 72 150 2.0 7.0 0.00 0.15 0.15 78 1008.9
20260509011008 72 135 2.0 6.0 0.00 0.15 0.15 77 1008.9
20260509010509 72 182 3.0 6.0 0.00 0.15 0.15 77 1008.9
20260509010014 72 184 2.0 6.0 0.00 0.15 0.15 78 1008.8
20260509005508 72 186 3.0 9.0 0.00 0.15 0.15 78 1008.7
20260509005010 72 194 5.0 9.0 0.00 0.15 0.15 77 1008.7
20260509004510 73 168 3.0 9.0 0.00 0.15 0.15 77 1008.6
20260509004010 73 157 5.0 10.0 0.00 0.15 0.15 77 1008.6
20260509003512 73 165 5.0 10.0 0.00 0.15 0.15 76 1008.5
20260509003026 73 183 6.0 10.0 0.00 0.15 0.15 76 1008.4
20260509002506 73 176 5.0 11.0 0.00 0.15 0.15 76 1008.4
20260509002007 73 178 5.0 11.0 0.00 0.15 0.15 76 1008.3
20260509001512 73 144 6.0 9.0 0.00 0.15 0.15 76 1008.3
20260509001008 73 198 3.0 12.0 0.00 0.15 0.15 76 1008.3
20260509000507 73 184 5.0 12.0 0.00 0.15 0.15 75 1008.3
20260509000035 73 184 6.0 11.0 0.00 0.15 0.15 75 1008.3
20260508235506 73 169 5.0 10.0 0.00 0.15 0.15 75 1008.4
20260508235007 73 184 4.0 11.0 0.00 0.15 0.15 74 1008.5
20260508234519 73 171 6.0 12.0 0.00 0.15 0.15 75 1008.6
20260508234009 73 194 6.0 12.0 0.00 0.15 0.15 74 1008.6
20260508233512 74 200 6.0 10.0 0.00 0.15 0.15 74 1008.7
20260508233014 73 159 5.0 11.0 0.00 0.15 0.15 74 1008.7
20260508232508 74 197 5.0 9.0 0.00 0.15 0.15 74 1008.8
20260508232014 73 168 4.0 10.0 0.00 0.15 0.15 73 1008.8
20260508231513 73 142 5.0 10.0 0.00 0.15 0.15 73 1008.8
20260508231007 74 159 4.0 9.0 0.00 0.15 0.15 73 1008.7
20260508230507 74 130 6.0 11.0 0.00 0.15 0.15 71 1008.7
20260508230015 74 178 5.0 11.0 0.00 0.15 0.15 72 1008.7
20260508225505 74 139 5.0 13.0 0.00 0.15 0.15 71 1008.8
20260508225010 74 146 4.0 13.0 0.00 0.15 0.15 71 1008.9
20260508224539 74 186 6.0 12.0 0.00 0.15 0.15 71 1008.9
20260508224006 74 123 3.0 10.0 0.00 0.15 0.15 71 1008.8
20260508223509 74 156 4.0 11.0 0.00 0.15 0.15 71 1008.9
20260508223023 74 148 5.0 12.0 0.00 0.15 0.15 71 1008.9
20260508222508 75 163 7.0 12.0 0.00 0.15 0.15 69 1008.9
20260508222007 76 192 5.0 11.0 0.00 0.15 0.15 69 1009.0
20260508221523 75 163 5.0 12.0 0.00 0.15 0.15 68 1009.0
20260508221011 75 172 6.0 13.0 0.00 0.15 0.15 67 1009.0
20260508220510 76 139 8.0 13.0 0.00 0.15 0.15 68 1009.0
20260508220016 76 159 6.0 13.0 0.00 0.15 0.15 67 1008.9
20260508215507 76 182 7.0 13.0 0.00 0.15 0.15 66 1008.9
20260508215011 76 142 6.0 14.0 0.00 0.15 0.15 66 1009.0
20260508214517 75 168 7.0 14.0 0.00 0.15 0.15 65 1009.0
20260508214007 76 152 6.0 12.0 0.00 0.15 0.15 67 1009.1
20260508213510 76 145 7.0 13.0 0.00 0.15 0.15 66 1009.2
20260508213031 75 183 7.0 13.0 0.00 0.15 0.15 67 1009.1
20260508212508 75 179 7.0 12.0 0.00 0.15 0.15 65 1009.2
20260508212009 76 127 6.0 11.0 0.00 0.15 0.15 64 1009.3
20260508211530 76 168 4.0 10.0 0.00 0.15 0.15 65 1009.4
20260508211008 76 173 6.0 11.0 0.00 0.15 0.15 67 1009.4
20260508210509 76 165 6.0 11.0 0.00 0.15 0.15 64 1009.4
20260508210025 76 136 6.0 11.0 0.00 0.15 0.15 64 1009.5
20260508205510 75 103 5.0 14.0 0.00 0.15 0.15 65 1009.7
20260508205009 75 154 6.0 14.0 0.00 0.15 0.15 67 1009.8
20260508204520 75 140 4.0 9.0 0.00 0.15 0.15 67 1009.8
20260508204010 75 172 4.0 11.0 0.00 0.15 0.15 66 1009.7
20260508203512 75 127 4.0 11.0 0.00 0.15 0.15 63 1009.6
20260508203022 74 121 4.0 11.0 0.00 0.15 0.15 66 1009.8
20260508202507 74 133 5.0 12.0 0.00 0.15 0.15 66 1010.3
20260508202012 74 118 6.0 12.0 0.00 0.15 0.15 67 1010.6
20260508201518 72 150 6.0 9.0 0.00 0.15 0.15 67 1010.7
20260508201008 72 180 3.0 10.0 0.00 0.15 0.15 70 1010.9
20260508200509 72 192 7.0 10.0 0.00 0.15 0.15 71 1011.2
20260508200030 71 180 5.0 13.0 0.00 0.15 0.15 71 1011.2
20260508195509 71 169 9.0 13.0 0.00 0.15 0.15 70 1011.5
20260508195011 72 197 6.0 12.0 0.00 0.15 0.15 70 1011.5
20260508194527 73 161 5.0 11.0 0.00 0.15 0.15 70 1011.4
20260508194014 73 181 4.0 11.0 0.00 0.15 0.15 68 1011.3
20260508193507 73 185 5.0 12.0 0.00 0.15 0.15 69 1011.4
20260508193021 72 178 6.0 12.0 0.00 0.15 0.15 69 1011.4
20260508192517 73 188 4.0 10.0 0.00 0.15 0.15 69 1011.3
20260508192015 73 180 6.0 12.0 0.00 0.15 0.15 67 1011.3
20260508191523 72 182 6.0 12.0 0.00 0.15 0.15 68 1011.3
20260508191010 72 146 3.0 12.0 0.00 0.15 0.15 69 1011.4
20260508190513 71 118 5.0 12.0 0.00 0.15 0.15 69 1011.4
20260508190026 71 186 6.0 12.0 0.00 0.15 0.15 70 1011.5